User: anonymous   Login
Location: Oshawa
(43.9000°N, 78.8670°W)
Time: 14:47:23
(UTC-04:00)
Language:

Cosmos 1821 Rocket - Orbit

View from above orbital plane
View from above orbital plane
View from above satellite
View from above satellite

Ground track
Ground track

The orbit data is extracted from the following two-line orbital elements,

1 17526U 87017B   14296.83602058  .00000107  00000-0  92085-4 0  1581
2 17526 082.9060 043.0256 0041503 140.6504 332.4139 13.76710005373245
Epoch (UTC): 23 October 2014 20:03:52
Eccentricity: 0.0041503
inclination: 82.9060°
perigee height: 945 km
apogee height: 1006 km
right ascension of ascending node: 43.0256°
argument of perigee: 140.6504°
revolutions per day: 13.76710005
mean anomaly at epoch: 332.4139°
orbit number at epoch: 37324

The dashed part of the orbit path shows where the satellite is in the earth's shadow,  

DLR